Location: Poprad
(49.0500°N, 20.3000°E)
Time: 06:16:16
(UTC+02:00)

ISS - Pass Details

Date: 24 March 2019
Orbit: 408 x 410 km, 51.6° (Epoch: 23 April)

Event Time Altitude Azimuth Distance (km) Brightness Sun altitude
Rises 21:04:23 0° 271° (W) 2,333 0.7 -28.7°
Reaches altitude 10° 21:06:31 10° 277° (W) 1,472 -0.4 -29.0°
Enters shadow 21:06:50 12° 278° (W) 1,345 -0.6 -29.0°
